Regional Weather Roundup
Issued by NWS

Home | Current Version | Previous Version | Text Only | Print | Product List | Glossary On
Versions: 1 2 3 4 5 6 7 8 9 10 11 12 13 14 15 16 17 18 19 20 21 22 23 24 25 26 27 28 29 30 31 32 33 34 35 36 37 38 39 40 41 42 43 44 45 46 47 48 49 50
406
ASUS44 KLIX 040301
RWRLA
LOUISIANA WEATHER ROUNDUP
NATIONAL WEATHER SERVICE NEW ORLEANS LA
900 PM CST TUE MAR 03 2015

NOTE: "FAIR" INDICATES FEW OR NO CLOUDS BELOW 12,000 FEET WITH NO
      SIGNIFICANT WEATHER AND/OR OBSTRUCTIONS TO VISIBILITY.
      SKY/WX - SKY CONDITION AND SIGNIFICANT WEATHER.
      TMP - AIR TEMPERATURE.    DP   - DEWPOINT TEMPERATURE.
      RH  - RELATIVE HUMIDITY.  PRES - PRESSURE.
      HX  - HEAT INDEX.         WCI  - WIND CHILL INDEX.

*  THESE STATIONS ARE NOT NWS OR FAA STATIONS AND ARE NOT UNDER
   NWS QUALITY CONTROL.

LAZ040-048-061>063-065-066-069-040400-
SOUTHEAST LOUISIANA

CITY           SKY/WX    TMP DP  RH WIND       PRES   REMARKS
N.O. AUDUBON     N/A     70  70  99 MISG        N/A
N.O. INTL ARPT PTCLDY    70  65  84 SE9       30.01S
N.O. LAKEFRONT MOCLDY    70  66  87 SE8       30.02S
SLIDELL        CLOUDY    68  67  96 SE9       30.02S
BATON ROUGE    PTCLDY    69  67  93 SE6       29.98S
BOOTHVILLE     FOG       67  66  97 SE7       30.03S VSB 1/2
BELLE CHASSE   MOCLDY    70  65  84 SE7       30.01S
BOGALUSA*        N/A     70  65  84 S10       30.03F
GALLIANO*      NOT AVBL
NEW ROADS*     NOT AVBL
GONZALES*      NOT AVBL
HAMMOND*       NOT AVBL
HOUMA*         CLOUDY    71  68  92 SE8       30.00F FOG
PORT FOURCHON* MOCLDY    70  68  94 SE7       30.05S

$$

LAZ041-044-053-054-040400-
SOUTHWEST LOUISIANA

CITY           SKY/WX    TMP DP  RH WIND       PRES   REMARKS
LAKE CHARLES   CLOUDY    69  68  96 S6        29.95R
LAFAYETTE      CLOUDY    69  68  96 S8        29.97R
PATTERSON      PTCLDY    70  68  94 S12       29.98F
SALT POINT       N/A     64  64 100 SE7       29.97F
NEW IBERIA     CLOUDY    69  68  96 S8        29.97S FOG
CHENAULT AIRPK NOT AVBL

$$

LAZ027-028-040400-
CENTRAL LOUISIANA

CITY           SKY/WX    TMP DP  RH WIND       PRES   REMARKS
FORT POLK      CLOUDY    69  65  89 S12       29.93S
ALEXANDRIA INT CLOUDY    68  66  93 S5        29.93R
ALEXANDRIA     PTCLDY    69  64  84 S3        29.95R

$$

LAZ001-002-040400-
NORTHWEST LOUISIANA

CITY           SKY/WX    TMP DP  RH WIND       PRES   REMARKS
SHREVEPORT     CLOUDY    68  63  84 S10       29.87R
BARKSDALE AFB  CLOUDY    66  63  89 S13       29.87S
DTN SHREVEPORT CLOUDY    66  61  84 S9        29.87R

$$

LAZ014-016-040400-
NORTHEAST LOUISIANA

CITY           SKY/WX    TMP DP  RH WIND       PRES   REMARKS
MONROE         CLEAR     66  63  90 S7        29.95R
TALLULAH       MOCLDY    68  66  93 S8        29.95R

$$




USA.gov is the U.S. government's official web portal to all federal, state and local government web resources and services.